Location: Berg
(48.4333°N, 13.9167°E)
Time: 08:48:48
(UTC+00:00)

Terra - Pass Details

Date: 18 September 2020
Orbit: 701 x 703 km, 98.2° (Epoch: 28 October)

Event Time Altitude Azimuth Distance (km) Brightness Sun altitude
Exits shadow 21:58:05 16° 315° (NW) 1,806 4.4 -38.5°
Drops below altitude 10° 21:59:17 10° 325° (NW) 2,182 5.0 -38.5°
Sets 22:01:52 0° 337° (NNW) 3,105 6.1 -38.7°
